CALVI current weather conditions

sailwx.info

Wind from 010 at 6 knots

Air temperature 4.0° C
Visibility: greater than 5.4 NM
Dewpoint -2.0° C

Last reported at 2017-Jan-16 15:30 UTC.
Time now 2017-Jan-16 17:11 UTC

Location: N 42°32' E 008°48'.
View on Google Maps.

See reports from other nearby stations

  
Tides and Currents Weather Stations Pressure Air Temp Water Temp Dewpoint Dewpoint Depression Visibility Wind Speed Wind Dir Waves Ship Positions
date/time (UTC)wind fromknots sea level pressurealtimeterstation pressurevisibilityair tempwater tempwave heightnotes
2017-Jan-16 16:30 050 4 5.4 3.0
2017-Jan-16 16:00 060 6 5.4 3.0
2017-Jan-16 15:30 010 6 5.4 4.0
2017-Jan-16 15:00 120 5 5.4 4.0
2017-Jan-16 14:30 050 13 5.4 6.0 Showers in the vicinity.
2017-Jan-16 13:30 060 7 5.4 6.0
2017-Jan-16 13:00 5.4 5.0
2017-Jan-16 12:30 5.4 4.0
2017-Jan-16 12:00 180 4 5.4 4.0
2017-Jan-16 11:30 300 4 5.4 3.0 Light rain showers.
2017-Jan-16 10:30 120 5 5.4 4.0 Showers in the vicinity.
2017-Jan-16 10:00 5.4 3.0 Showers in the vicinity.
2017-Jan-16 09:30 200 6 5.4 3.0
2017-Jan-16 09:00 220 7 5.4 2.0
2017-Jan-16 08:30 100 7 5.4 2.0 Light rain showers. Small hail/snow pellets.
2017-Jan-16 08:00 5.4 4.0 Light rain showers.
2017-Jan-16 07:30 210 6 5.4 3.0 Showers in the vicinity.
2017-Jan-16 07:00 5.4 2.0 Light rain showers.
2017-Jan-16 06:30 220 4 5.4 3.0
2017-Jan-16 06:00 180 5 5.4 3.0
2017-Jan-16 05:30 200 5 5.4 3.0
2017-Jan-16 05:00 180 6 5.4 3.0
2017-Jan-16 04:30 170 5 5.4 3.0
2017-Jan-16 04:00 190 4 5.4 3.0
2017-Jan-16 03:30 190 4 5.4 3.0
2017-Jan-16 03:00 160 6 5.4 3.0
2017-Jan-16 02:30 200 6 5.4 3.0
2017-Jan-16 02:00 200 7 5.4 3.0
2017-Jan-16 01:30 130 5 5.4 4.0 Light rain.
2017-Jan-16 01:00 340 6 5.4 4.0 Light rain.
2017-Jan-16 00:30 360 17 5.4 6.0
2017-Jan-16 00:00 350 6 5.4 5.0
2017-Jan-15 23:30 020 6 5.4 4.0
2017-Jan-15 23:00 010 5 5.4 5.0
2017-Jan-15 22:30 020 6 5.4 6.0
2017-Jan-15 22:00 030 8 5.4 6.0
2017-Jan-15 21:30 040 11 5.4 7.0
2017-Jan-15 21:00 030 9 5.4 7.0
2017-Jan-15 20:30 020 8 5.4 6.0
2017-Jan-15 20:00 040 8 5.4 7.0
2017-Jan-15 19:30 050 8 5.4 7.0
2017-Jan-15 19:00 030 6 5.4 7.0
2017-Jan-15 18:30 030 8 5.4 7.0
2017-Jan-15 18:00 040 11 5.4 7.0
2017-Jan-15 17:30 060 13 gusting 24 5.4 8.0
2017-Jan-15 17:00 050 12 5.4 8.0
2017-Jan-15 16:30 050 12 5.4 8.0
2017-Jan-15 16:00 050 13 5.4 8.0 Showers in the vicinity.
2017-Jan-15 15:36 040 13 5.4 9.0
2017-Jan-15 15:00 050 13 5.4 9.0
2017-Jan-15 14:30 040 13 5.4 9.0
2017-Jan-15 14:00 040 13 5.4 9.0
2017-Jan-15 13:30 040 14 5.4 9.0
2017-Jan-15 13:00 040 12 5.4 8.0
2017-Jan-15 12:30 040 13 5.4 8.0
2017-Jan-15 12:00 030 14 5.4 8.0 Showers in the vicinity.
2017-Jan-15 11:30 040 13 5.4 9.0
2017-Jan-15 11:00 040 12 5.4 9.0
2017-Jan-15 10:30 040 13 5.4 8.0
2017-Jan-15 10:00 040 11 5.4 8.0
2017-Jan-15 09:30 030 9 5.4 8.0
2017-Jan-15 09:00 030 6 5.4 7.0
2017-Jan-15 08:30 030 6 5.4 6.0 Showers in the vicinity.
2017-Jan-15 08:00 020 7 5.4 6.0
2017-Jan-15 07:30 010 8 5.4 5.0
2017-Jan-15 07:00 010 6 5.4 4.0
2017-Jan-15 06:30 5.4 4.0
2017-Jan-15 06:00 5.4 4.0
2017-Jan-15 05:30 080 18 2.6 4.0 Light rain. Mist.
2017-Jan-15 05:00 090 8 5.4 4.0 Light rain.
2017-Jan-15 04:30 060 7 5.4 5.0
2017-Jan-15 04:00 5.4 4.0
2017-Jan-15 03:30 200 6 5.4 4.0
2017-Jan-15 03:00 160 6 5.4 4.0
2017-Jan-15 02:30 5.4 4.0 Light rain.
2017-Jan-15 02:00 5.4 5.0 Light rain.
2017-Jan-15 01:30 360 5 5.4 5.0 Light rain.
2017-Jan-15 01:00 260 5 5.4 5.0
2017-Jan-15 00:30 180 5 5.4 5.0
2017-Jan-15 00:00 030 5 5.4 5.0 Light rain.
2017-Jan-14 23:30 040 4 5.4 6.0 Light rain.
2017-Jan-14 23:00 350 4 5.4 7.0 Thunderstorm.
2017-Jan-14 22:30 5.4 4.0
2017-Jan-14 22:00 180 5 5.4 4.0
2017-Jan-14 21:30 200 2 5.4 4.0
2017-Jan-14 21:00 180 2 5.4 4.0
2017-Jan-14 20:30 210 4 5.4 5.0
2017-Jan-14 20:00 170 6 5.4 4.0
2017-Jan-14 19:30 160 4 5.4 4.0
2017-Jan-14 19:00 150 4 5.4 5.0
2017-Jan-14 18:30 180 6 5.4 7.0
2017-Jan-14 18:00 150 5 5.4 7.0
2017-Jan-14 17:30 160 6 5.4 8.0
2017-Jan-14 17:00 200 8 5.4 8.0